Notices

What's New in latest Release from April 7th, 2021:

- Updated Glossary, including Speed of Maximum Gust, and Total Hourly Precipitation

- Updated national and regional climate services offices contacts and prices information

- Addition of station inventory lists for 1981-2010, 1971-2000, and 1961-1990 Normals.

If you haven't already, please take our survey and provide feedback about our website: https://eccc.sondage-survey.ca/f/LanguageSelection.aspx?s=442ca660-fcf1-47c0-95a9-59707d6fd709

Hourly Data Report for October 01, 2019

SAINT JOHN A
NEW BRUNSWICK
Current Station Operator: NAVCAN

45°18'58.000" N
65°53'24.000" W
108.80 m
8104901
71609
YSJ

Download Data

Hourly Data (October 2019)
Hourly Data Report for October 1, 2019
TIME
LST
Temp Definition
°C
Dew Point Definition
°C
Rel Hum Definition
%
Precip. Amount Definition
mm

Wind Dir Definition
10's deg

Wind Spd Definition
km/h
Visibility Definition
km
Stn Press Definition
kPa
Hmdx Definition


Wind Chill Definition


Weather Definition


00:00 4.9 4.6 97   36 1 24.1 101.05     LegendNANA
01:00 5.5 5.3 99   2 4 24.1 101.00     LegendNANA
02:00 6.3 6.1 99   36 3 24.1 100.97     Cloudy
03:00 7.0 6.2 94   36 2 24.1 100.89     LegendNANA
04:00 7.2 6.5 96   36 3 24.1 100.82     LegendNANA
05:00 6.9 5.8 92   18 3 24.1 100.79     Cloudy
06:00 6.0 5.7 98   36 1 24.1 100.80     LegendNANA
07:00 5.2 5.1 99   36 2 24.1 100.81     LegendNANA
08:00 7.4 5.2 86   6 5 24.1 100.78     Cloudy
09:00 9.0 3.9 70   5 4 24.1 100.77     LegendNANA
10:00 10.0 4.4 68   18 4 24.1 100.76     LegendNANA
11:00 11.1 5.7 69   19 8 24.1 100.70     Cloudy
12:00 12.4 6.2 66   20 13 24.1 100.60     LegendNANA
13:00 12.2 3.0 53   19 19 24.1 100.47     LegendNANA
14:00 11.8 4.9 63   20 20 24.1 100.41     Cloudy
15:00 11.2 6.7 74   20 26 24.1 100.26     LegendNANA
16:00 10.4 6.2 75   20 22 19.3 100.23     LegendNANA
17:00 10.9 6.9 76   20 21 24.1 100.12     Cloudy
18:00 11.0 8.4 84   19 25 24.1 100.02     LegendNANA
19:00 11.3 10.1 92   19 26 24.1 99.83     LegendNANA
20:00 11.7 10.8 94   19 32 12.9 99.73     Cloudy
21:00 11.8 11.6 98   20 30 8.1 99.57     Fog
22:00 12.2 11.9 99   21 26 8.1 99.46     Drizzle,Fog
23:00 12.4 12.2 99   22 32 8.1 99.32     Drizzle,Fog

Notes on Data Quality.

Legend

  • E = Estimated
  • M = Missing
  • NA = Not Available*
  • [empty] = Indicates an unobserved value
Date modified: